Starlink 30240

operational
NORAD ID: 57404 Int'l Des: 2023-102 Owner: SPXS Country: US Constellation: starlink
LEOCIRCULAR

Über Starlink 30240

Beschreibung wird geladen...

Live-Position

3D-Globus wird geladen...

Nächste Überflüge

Höhenverlauf

Altitude vs Time

uPlot chart will show altitude changes over time

Zweizeiliger Elementsatz

1 57404U 23102A 25352.32156151 .00000940 00000-0 84669-4 0 9999
2 57404 43.0052 331.2534 0001301 275.2914 84.7780 15.02524556133996
Epoch: 18. Dez. 2025 • Age: 15 hours

Aktueller Status

Höhe 560.6 km
Geschwindigkeit 7.58 km/s
Subsatellitenpunkt -9.60°S, 86.35°E
Startdatum 19. Juli 2023
Alter 2.4 years
Typ internet

Technische Details

Klassifizierung Payload
Masse 730.00 kg
Trockenmasse 700.00 kg
Gesamtmasse 730.00 kg
Länge 0.30 m
Durchmesser 4.10 m
Spannweite 29.00 m
Form Box + pan
Hersteller SPXS
Bus-Typ Starlink V2M
Phasenstatus In Orbit
Besitzer/Staat SPXS/US

Große Konstellationen

Loading constellations...